FW8932 Weather Reports


time (UTC)temp
C
wind
direction
speed
KPH
gust
KPH
rain 1hr
cm
rain 24hr
cm
rain mn
cm
humidity
%
barometer
mb
20260510153203 12 139 3.2 9.7 0.00 1.12 0.20 76 981.8
20260510151203 11 93 1.6 4.8 0.00 1.12 0.20 90 981.9
20260510150703 10 67 1.6 4.8 0.00 1.12 0.20 89 981.8
20260510150203 10 114 1.6 4.8 0.00 1.12 0.20 92 981.6
20260510144704 10 222 1.6 4.8 0.00 1.12 0.20 96 981.5
20260510144204 10 116 3.2 3.2 0.00 1.12 0.20 94 981.3
20260510143704 10 151 1.6 3.2 0.00 1.12 0.20 96 981.4
20260510143203 10 158 1.6 3.2 0.00 1.12 0.20 96 981.2
20260510141204 10 161 1.6 4.8 0.00 1.12 0.20 97 981.1
20260510140703 10 150 1.6 3.2 0.00 1.12 0.20 97 981.0
20260510140204 10 144 1.6 3.2 0.00 1.12 0.20 97 981.0
20260510134204 10 1 0.0 1.6 0.00 1.12 0.20 97 980.9
20260510133203 10 68 1.6 1.6 0.00 1.12 0.20 97 980.8
20260510131204 10 229 0.0 1.6 0.00 1.12 0.20 97 980.8
20260510130703 10 221 0.0 1.6 0.00 1.12 0.20 97 980.6
20260510130204 10 217 0.0 3.2 0.00 1.12 0.20 97 980.6
20260510123703 10 100 1.6 3.2 0.08 1.12 0.20 97 980.4
20260510123203 10 101 0.0 4.8 0.08 1.12 0.20 97 980.3
20260510121704 10 115 0.0 1.6 0.08 1.14 0.20 97 979.6
20260510121203 10 105 0.0 0.0 0.08 1.14 0.20 97 979.6
20260510120703 10 105 0.0 0.0 0.08 1.14 0.20 96 979.6
20260510114704 11 257 0.0 0.0 0.03 1.12 0.15 96 979.5
20260510114203 10 257 0.0 0.0 0.00 1.09 0.13 96 979.5
20260510113704 10 257 0.0 0.0 0.00 1.09 0.13 96 979.3
20260510113204 10 257 1.6 1.6 0.00 1.09 0.13 96 979.2
20260510111704 10 219 0.0 0.0 0.00 1.09 0.13 96 978.6
20260510111204 10 219 0.0 1.6 0.00 1.09 0.13 96 978.5
20260510110704 10 67 0.0 1.6 0.00 1.09 0.13 96 978.3
20260510110204 10 30 0.0 1.6 0.00 1.12 0.13 96 978.4
20260510104203 10 148 0.0 0.0 0.00 1.12 0.13 96 978.2
20260510103703 10 148 0.0 0.0 0.00 1.12 0.13 96 978.0
20260510101704 10 150 0.0 1.6 0.00 1.12 0.13 96 977.3
20260510101204 10 0 0.0 1.6 0.00 1.12 0.13 96 977.3
20260510100703 10 1 0.0 0.0 0.00 1.12 0.13 96 977.4
20260510094704 10 341 0.0 1.6 0.00 1.14 0.13 96 976.9
20260510094204 10 347 0.0 1.6 0.00 1.17 0.13 96 976.9
20260510093203 10 347 0.0 0.0 0.00 1.17 0.13 96 976.7
20260510091703 10 347 0.0 1.6 0.00 1.24 0.13 96 976.5
20260510091203 10 357 1.6 3.2 0.00 1.27 0.13 96 976.5
20260510090703 10 5 1.6 3.2 0.00 1.27 0.13 96 976.4
20260510090204 10 352 0.0 0.0 0.00 1.27 0.13 96 976.3
20260510084704 11 357 0.0 1.6 0.00 1.32 0.13 96 976.0
20260510084203 11 22 1.6 1.6 0.00 1.32 0.13 96 975.9
20260510083703 11 6 0.0 0.0 0.00 1.32 0.13 96 976.0
20260510083203 11 6 0.0 3.2 0.00 1.32 0.13 96 975.9
20260510081703 12 22 1.6 3.2 0.00 1.32 0.13 96 975.8
20260510081204 12 316 1.6 4.8 0.00 1.32 0.13 96 975.8
20260510080203 12 286 3.2 4.8 0.00 1.32 0.13 96 975.7
20260510074703 11 296 1.6 3.2 0.03 1.32 0.13 96 975.5
20260510073203 11 321 1.6 4.8 0.03 1.32 0.13 96 975.5
20260510071705 11 335 1.6 3.2 0.03 1.32 0.13 96 975.6
20260510071205 11 324 1.6 4.8 0.03 1.32 0.13 96 975.6
20260510070704 11 334 1.6 4.8 0.03 1.32 0.13 96 975.6
20260510064205 12 24 0.0 3.2 0.00 1.45 0.10 96 975.4
20260510063705 12 344 1.6 3.2 0.00 1.45 0.10 96 975.4
20260510063205 12 343 1.6 4.8 0.00 1.45 0.10 96 975.3
20260510061705 12 331 1.6 4.8 0.10 1.45 0.10 96 975.4
20260510061204 12 331 1.6 3.2 0.10 1.45 0.10 96 975.4
20260510060705 12 345 1.6 3.2 0.10 1.45 0.10 96 975.4
20260510060205 12 309 1.6 4.8 0.10 1.45 0.10 96 975.4
20260510054705 12 264 1.6 3.2 0.10 1.45 0.10 96 975.7
20260510054205 12 314 1.6 3.2 0.10 1.45 0.10 96 975.9
20260510053705 12 286 3.2 4.8 0.10 1.45 0.10 96 975.9
20260510053205 12 20 1.6 8.0 0.18 1.45 0.18 96 976.1
20260510051705 12 243 1.6 8.0 0.00 1.27 0.00 96 976.3
20260510051205 12 271 4.8 4.8 0.00 1.27 0.00 96 975.5
20260510050704 12 299 0.0 1.6 0.00 1.27 0.00 96 975.2
20260510050204 12 298 0.0 1.6 0.00 1.27 0.00 96 975.2
20260510044205 12 319 0.0 1.6 0.00 1.27 0.00 96 975.1
20260510043705 12 281 0.0 3.2 0.00 1.27 0.00 96 975.1
20260510043205 13 298 1.6 4.8 0.00 1.27 0.00 96 974.9
20260510023205 13 353 0.0 3.2 0.10 1.57 0.71 96 974.6
20260510021705 13 260 0.0 1.6 0.10 1.27 0.41 96 974.5
20260510020704 13 298 3.2 4.8 0.15 1.27 0.41 96 974.6
20260510020205 13 300 1.6 3.2 0.15 1.32 0.41 96 974.7
20260510014205 14 325 0.0 1.6 0.20 1.32 0.46 95 974.4
20260510013705 15 132 1.6 3.2 0.38 1.22 0.64 95 974.4
20260510013204 15 84 3.2 11.3 0.36 1.19 0.61 92 974.3
20260510011704 18 108 4.8 9.7 0.05 0.89 0.28 71 973.6
20260510011205 18 284 4.8 9.7 0.00 0.84 0.25 61 973.1
20260510010705 18 132 1.6 4.8 0.00 0.84 0.25 61 972.6
20260510010204 18 42 1.6 9.7 0.00 0.84 0.25 60 972.3
20260510004704 18 169 3.2 9.7 0.00 0.89 0.25 60 972.0
20260510004205 18 220 4.8 14.5 0.00 0.89 0.25 59 972.1
20260510003705 18 82 4.8 9.7 0.00 0.94 0.25 60 972.1
20260510003204 18 158 3.2 9.7 0.00 0.94 0.25 59 972.1
20260510001705 19 92 4.8 9.7 0.00 0.99 0.25 60 972.2
20260510001205 19 103 4.8 9.7 0.00 1.02 0.25 59 972.2
20260510000705 19 120 4.8 9.7 0.00 1.02 0.25 60 972.1
20260510000205 19 110 3.2 9.7 0.00 1.02 0.25 60 972.1
20260509234705 19 129 3.2 8.0 0.00 1.02 0.25 59 972.0
20260509234204 19 116 4.8 9.7 0.00 1.02 0.25 59 971.9
20260509233705 20 95 4.8 9.7 0.00 1.02 0.25 58 971.9
20260509233205 20 143 3.2 9.7 0.00 1.02 0.25 58 971.8
20260509231705 20 124 4.8 11.3 0.00 1.02 0.25 57 971.7
20260509231205 20 182 4.8 12.9 0.00 1.02 0.25 57 971.6
20260509224704 20 218 4.8 9.7 0.00 1.02 0.25 58 971.6
20260509224205 20 157 6.4 12.9 0.00 1.02 0.25 56 971.8
20260509223705 20 149 8.0 11.3 0.00 1.02 0.25 56 971.9
20260509223205 20 188 4.8 14.5 0.00 1.02 0.25 56 971.8
20260509221705 20 138 3.2 14.5 0.00 1.02 0.25 58 971.8
20260509221205 20 95 4.8 14.5 0.00 1.02 0.25 57 971.8
20260509220705 20 125 4.8 9.7 0.00 1.02 0.25 57 971.9
20260509220205 20 141 4.8 12.9 0.00 1.02 0.25 57 971.9
20260509214705 20 127 8.0 14.5 0.00 1.02 0.25 58 971.8
20260509213705 20 112 4.8 11.3 0.00 1.02 0.25 60 971.9
20260509213204 20 207 4.8 11.3 0.00 1.02 0.25 59 972.0
20260509211704 20 121 4.8 11.3 0.00 1.02 0.25 58 972.0
20260509211204 20 111 6.4 11.3 0.00 1.02 0.25 59 972.1
20260509210704 20 154 4.8 9.7 0.00 1.02 0.25 59 972.1
20260509210205 20 125 8.0 19.3 0.00 1.02 0.25 59 972.2
20260509204705 20 122 6.4 14.5 0.00 1.02 0.25 60 972.2
20260509203705 19 152 4.8 11.3 0.00 1.02 0.25 62 972.2
20260509203205 20 93 9.7 19.3 0.00 1.02 0.25 60 972.3
20260509201705 20 129 4.8 12.9 0.00 1.02 0.25 63 972.5
20260509201205 20 120 4.8 12.9 0.00 1.02 0.25 64 972.6
20260509200705 20 141 4.8 11.3 0.00 1.02 0.25 62 972.8
20260509194705 19 142 4.8 11.3 0.00 1.02 0.25 64 973.1
20260509193205 19 145 4.8 11.3 0.00 1.02 0.25 64 973.2
20260509191705 18 144 6.4 12.9 0.00 1.02 0.25 66 973.3
20260509191205 18 138 6.4 11.3 0.00 1.02 0.25 66 973.5
20260509190705 18 137 4.8 11.3 0.00 1.02 0.25 67 973.6
20260509190205 18 109 8.0 14.5 0.00 1.02 0.25 66 973.6
20260509184705 18 260 4.8 11.3 0.00 1.02 0.25 69 973.8
20260509184204 17 189 6.4 9.7 0.00 1.02 0.25 72 973.8
20260509183704 17 148 4.8 12.9 0.00 1.02 0.25 70 973.8
20260509180705 17 168 6.4 11.3 0.00 1.02 0.25 73 973.9
20260509180204 17 134 3.2 12.9 0.00 1.02 0.25 73 974.0
20260509174205 16 106 4.8 12.9 0.00 1.02 0.25 77 974.2
20260509173204 16 87 4.8 11.3 0.00 1.02 0.25 77 974.3
20260509171704 16 109 3.2 9.7 0.00 1.02 0.25 79 974.4
20260509171204 16 165 4.8 9.7 0.00 1.02 0.25 82 974.5
20260509170704 16 119 4.8 8.0 0.00 1.02 0.25 81 974.4
20260509164704 15 140 4.8 12.9 0.00 1.02 0.25 84 974.5
20260509164205 14 176 4.8 12.9 0.00 1.02 0.25 85 974.5
20260509163204 14 126 3.2 9.7 0.00 1.02 0.25 86 974.6
20260509161704 13 134 3.2 11.3 0.00 1.02 0.25 86 974.6
20260509160704 13 133 4.8 11.3 0.00 1.02 0.25 87 974.7
20260509160205 13 120 4.8 11.3 0.00 1.02 0.25 89 974.6
20260509154705 13 153 3.2 8.0 0.00 1.02 0.25 88 974.4
20260509154205 13 129 3.2 4.8 0.00 1.02 0.25 89 974.3